Tiruchchirapalli, India

4:56 AM IST on February 20, 2017 (GMT +0530)
Tiruchirappalli

Weather History for VOTR - April, 2013

Change the Weather History Date:

Thursday, April 11, 2013

  Actual Average Record
Temperature  
Mean Temperature 90 °F -  
Max Temperature 102 °F 94 °F 105 °F (2014)
Min Temperature 78 °F 80 °F 71 °F (2007)
Cooling Degree Days 25    
Growing Degree Days 40 (Base 50)    
Moisture  
Dew Point 71 °F    
Average Humidity 55    
Maximum Humidity 83    
Minimum Humidity 20    
Precipitation  
Precipitation 0.00 in - - ()
Sea Level Pressure  
Sea Level Pressure 29.76 in    
Wind  
Wind Speed 4 mph ()    
Max Wind Speed 14 mph    
Max Gust Speed -    
Visibility 3.5 miles    
Events      
Averages and records for this station are not official NWS values.
T = Trace of Precipitation, MM = Missing Value Source: Averaged Metar Reports

Daily Weather History Graph

Daily Weather History Graph

Search for Another Location

Airport or City:

Trip Planner

Search our weather history database for the weather conditions in past years. The results will help you decide how hot, cold, wet, or windy it might be!

Date:

Astronomy

Apr. 11, 2013 Rise Set
Actual Time 6:06 AM IST 6:26 PM IST
Civil Twilight 5:45 AM IST 6:47 PM IST
Nautical Twilight 5:20 AM IST 7:12 PM IST
Astronomical Twilight 4:55 AM IST 7:37 PM IST
Moon 6:32 AM IST (4/11) 7:16 PM IST (4/11)
Length of Visible Light 13h 02m
Length of Day
12h 19m
New Moon, 1% of the Moon is Illuminated
Apr 11
New Moon
Apr 18
First Quarter
Apr 26
Full
May 2
Last Quarter
May 10
New

Hourly Weather History & Observations

Time (IST) Temp. Heat Index Dew Point Humidity Pressure Visibility Wind Dir Wind Speed Gust Speed Precip Events Conditions
12:10 AM 84.2 °F 89.6 °F 71.6 °F 66% 29.80 in 3.7 mi SSE 4.6 mph - N/A   Unknown
12:40 AM 84.2 °F 89.6 °F 71.6 °F 66% 29.80 in 3.7 mi SSE 3.5 mph - N/A   Unknown
1:10 AM 84.2 °F 90.9 °F 73.4 °F 70% 29.80 in 3.7 mi SSE 3.5 mph - N/A   Unknown
1:40 AM 82.4 °F 88.2 °F 73.4 °F 74% 29.80 in 3.7 mi SSE 4.6 mph - N/A   Unknown
2:10 AM 82.4 °F 88.2 °F 73.4 °F 74% 29.77 in 3.7 mi ESE 3.5 mph - N/A   Unknown
2:30 AM 82 °F - 74 °F 70% 29.78 in 2 mi East 3.5 mph - -   Haze
2:40 AM 82.4 °F 88.2 °F 73.4 °F 74% 29.77 in 3.7 mi East 3.5 mph - N/A   Unknown
3:40 AM 80.6 °F 85.4 °F 73.4 °F 79% 29.77 in 3.1 mi ESE 2.3 mph - N/A   Haze
4:10 AM 80.6 °F 85.4 °F 73.4 °F 79% 29.77 in 3.1 mi ESE 3.5 mph - N/A   Haze
4:40 AM 80.6 °F 85.4 °F 73.4 °F 79% 29.77 in 3.1 mi SE 2.3 mph - N/A   Haze
5:10 AM 78.8 °F - 73.4 °F 83% 29.77 in 3.1 mi Calm Calm - N/A   Haze
5:30 AM 80 °F - 75 °F 80% 29.77 in 1 mi Calm Calm - -   Haze
5:40 AM 78.8 °F - 73.4 °F 83% 29.77 in 2.5 mi Calm Calm - N/A   Haze
6:10 AM 78.8 °F - 73.4 °F 83% 29.80 in 2.2 mi SSE 2.3 mph - N/A   Haze
7:10 AM 82.4 °F 89.5 °F 75.2 °F 79% 29.80 in 1.9 mi South 2.3 mph - N/A   Haze
7:40 AM 84.2 °F 92.3 °F 75.2 °F 74% 29.83 in 2.2 mi SSW 6.9 mph - N/A   Haze
8:10 AM 86.0 °F 95.1 °F 75.2 °F 70% 29.83 in 2.5 mi South 5.8 mph - N/A   Haze
8:30 AM 87 °F - 75 °F 60% 29.84 in 2 mi SSW 4.6 mph - -   Haze
8:40 AM 87.8 °F 97.6 °F 75.2 °F 66% 29.86 in 2.5 mi SSW 4.6 mph - N/A   Haze
9:40 AM 91.4 °F 102.5 °F 75.2 °F 59% 29.86 in 3.1 mi WSW 3.5 mph - N/A   Haze
10:10 AM 93.2 °F 105.0 °F 75.2 °F 56% 29.83 in 3.7 mi WSW 3.5 mph - N/A   Scattered Clouds
10:40 AM 95.0 °F 104.5 °F 73.4 °F 49% 29.83 in 3.7 mi WSW 3.5 mph - N/A   Scattered Clouds
11:10 AM 96.8 °F 105.1 °F 71.6 °F 44% 29.83 in 3.7 mi West 3.5 mph - N/A   Scattered Clouds
11:30 AM 95 °F - 71 °F 36% 29.81 in 2 mi NE 3.5 mph - -   Haze
11:40 AM 96.8 °F 105.1 °F 71.6 °F 44% 29.83 in 3.7 mi Variable 3.5 mph - N/A   Scattered Clouds
12:10 PM 96.8 °F 105.1 °F 71.6 °F 44% 29.80 in 3.7 mi Variable 3.5 mph - N/A   Scattered Clouds
12:40 PM 98.6 °F 107.7 °F 71.6 °F 42% 29.77 in 3.7 mi Variable 4.6 mph - N/A   Scattered Clouds
1:10 PM 100.4 °F 107.8 °F 69.8 °F 37% 29.74 in 5.0 mi SE 5.8 mph - N/A   Scattered Clouds
1:40 PM 102.2 °F 110.0 °F 69.8 °F 35% 29.74 in 5.0 mi Variable 3.5 mph - N/A   Scattered Clouds
2:10 PM 102.2 °F 110.0 °F 69.8 °F 35% 29.71 in 5.0 mi Variable 3.5 mph - N/A   Scattered Clouds
2:30 PM 101 °F - 65 °F 22% 29.69 in 2 mi NNE 11.5 mph - -   Haze
2:40 PM 102.2 °F 106.9 °F 66.2 °F 31% 29.71 in 5.0 mi NNE 9.2 mph - N/A   Scattered Clouds
3:10 PM 100.4 °F 106.3 °F 68.0 °F 35% 29.68 in 5.0 mi Variable 3.5 mph - N/A   Scattered Clouds
3:40 PM 102.2 °F 106.9 °F 66.2 °F 31% 29.68 in 5.0 mi Variable 3.5 mph - N/A   Scattered Clouds
4:10 PM 102.2 °F 106.9 °F 66.2 °F 31% 29.68 in 5.0 mi Variable 2.3 mph - N/A   Scattered Clouds
4:40 PM 100.4 °F 106.3 °F 68.0 °F 35% 29.68 in 5.0 mi SSE 4.6 mph - N/A   Scattered Clouds
5:10 PM 100.4 °F 106.3 °F 68.0 °F 35% 29.68 in 5.0 mi ESE 6.9 mph - N/A   Scattered Clouds
5:30 PM 100 °F - 63 °F 20% 29.67 in 2 mi East 3.5 mph - -   Haze
5:40 PM 100.4 °F 103.6 °F 64.4 °F 31% 29.68 in 5.0 mi Variable 3.5 mph - N/A   Partly Cloudy
6:10 PM 98.6 °F 101.0 °F 64.4 °F 32% 29.68 in 5.0 mi ESE 11.5 mph - N/A   Partly Cloudy
6:40 PM 95.0 °F 99.5 °F 68.0 °F 41% 29.68 in 3.7 mi SE 13.8 mph - N/A   Partly Cloudy
7:10 PM 93.2 °F 98.8 °F 69.8 °F 46% 29.71 in 3.7 mi SSE 11.5 mph - N/A   Partly Cloudy
7:40 PM 91.4 °F 96.8 °F 69.8 °F 49% 29.71 in 3.7 mi SE 9.2 mph - N/A   Partly Cloudy
8:10 PM 89.6 °F 94.7 °F 69.8 °F 52% 29.74 in 3.7 mi SSE 13.8 mph - N/A   Partly Cloudy
8:30 PM 89 °F - 72 °F 49% 29.73 in 2 mi SE 11.5 mph - -   Haze
8:40 PM 89.6 °F 96.2 °F 71.6 °F 55% 29.74 in 3.7 mi SE 13.8 mph - N/A   Partly Cloudy
9:10 PM 89.6 °F 98.2 °F 73.4 °F 59% 29.77 in 3.7 mi SE 9.2 mph - N/A   Partly Cloudy
9:40 PM 89.6 °F 98.2 °F 73.4 °F 59% 29.77 in 3.7 mi SSE 6.9 mph - N/A   Partly Cloudy
10:10 PM 87.8 °F 95.6 °F 73.4 °F 62% 29.77 in 3.7 mi SSE 6.9 mph - N/A   Partly Cloudy
10:40 PM 87.8 °F 95.6 °F 73.4 °F 62% 29.77 in 3.7 mi SSE 4.6 mph - N/A   Partly Cloudy
11:10 PM 86.0 °F 93.4 °F 73.4 °F 66% 29.77 in 3.7 mi SE 4.6 mph - N/A   Partly Cloudy
11:30 PM 85 °F - 73 °F 60% 29.78 in 2 mi SE 4.6 mph - -   Haze
11:40 PM 86.0 °F 93.4 °F 73.4 °F 66% 29.77 in 3.7 mi SE 5.8 mph - N/A   Partly Cloudy